Flag for U.S.A. Weather past 2 weeks in St. Augustine, Florida, U.S.A.

Now
69 °F

Clear.


Feels Like: 69 °F
Forecast: 73 / 82 °F
Wind: No wind

Location: St. Augustine Airport

Current Time: Jun 3, 2015 at 5:40:06 AM

Latest Report: Jun 3, 2015 at 4:58 AM


Visibility: 10 mi

Pressure: 29.96 "Hg

Humidity: 96%

Dew point: 68 °F

Location of St. AugustineLocation

Historic Weather in St. Augustine — Graph

°F

St. Augustine temperature yesterday

Maximum temperature yesterday: 84 °F (at 2:58 PM)
Minimum temperature yesterday: 70 °F (at 10:58 PM)
Average temperature yesterday: 76 °F

Past Weeks' High & Low Weather Summary

 TemperatureHumidityPressure
High93 °F (May 21, 4:58 PM)100% (May 20, 5:58 AM)30.31 "Hg (May 20, 5:58 AM)
Low69 °F (Jun 3, 2:58 AM)41% (May 21, 5:58 PM)29.89 "Hg (May 21, 5:58 PM)
Average78 °F77%30.12 "Hg
* Reported May 19 3:58 AM — Jun 3 3:58 AM, St. Augustine, Weather by CustomWeather, © 2015

Note: Actual official high and low records may vary slightly from our data, if they occured in-between our weather recording intervals... More about our weather records

Advertising

St. Augustine weather history for previous 24 hours

 ConditionsComfort  
Time TempWeatherWind HumidityBarometerVisibility
3:58 AM
Wed, Jun 3
69 °FPassing clouds.No wind96%29.96 "Hg10 mi
2:58 AM69 °FOvercast.6 mph96%29.98 "Hg10 mi
1:58 AM70 °FClear.No wind93%29.97 "Hg10 mi
12:58 AM70 °FOvercast.No wind93%30.00 "Hg10 mi
11:58 PM
Tue, Jun 2
70 °FPassing clouds.5 mph93%29.99 "Hg10 mi
10:58 PM70 °FPassing clouds.6 mph97%29.99 "Hg10 mi
9:58 PM71 °FClear.5 mph93%30.00 "Hg10 mi
8:58 PM72 °FThundershowers. Partly sunny.7 mph97%30.00 "Hg10 mi
7:58 PM72 °FLight rain. Fog.5 mph97%29.97 "Hg5 mi
6:58 PM72 °FLight rain. Partly sunny.No wind93%29.95 "Hg10 mi
6:03 PM72 °FLight rain. Overcast.No wind94%29.97 "Hg10 mi
4:58 PM79 °FThunderstorms. Broken clouds.12 mph82%29.96 "Hg6 mi
3:58 PM83 °FScattered clouds.12 mph68%29.97 "Hg10 mi
2:58 PM84 °FSunny.8 mph70%29.99 "Hg10 mi
1:58 PM83 °FSunny.10 mph72%30.01 "Hg10 mi
12:58 PM82 °FSunny.10 mph72%30.02 "Hg10 mi
11:58 AM82 °FSunny.12 mph67%30.02 "Hg10 mi
10:58 AM83 °FSunny.9 mph65%30.03 "Hg10 mi
9:58 AM82 °FSunny.3 mph63%30.03 "Hg10 mi
8:58 AM79 °FSunny.3 mph72%30.03 "Hg10 mi
7:58 AM75 °FSunny.No wind88%30.03 "Hg10 mi
6:58 AM71 °FClear.No wind93%30.01 "Hg10 mi
5:58 AM71 °FClear.No wind93%30.01 "Hg10 mi
Weather by CustomWeather, © 2015

See weather overviewHow to use our weather pages